User: anonymous   Login
Location: Unspecified
(0.0000°N, 0.0000°E)
Time: 22:22:23
(UTC+00:00)
Language:

TBA - TO BE ASSIGNED - Orbit

View from above orbital plane
View from above orbital plane
View from above satellite
View from above satellite

Ground track
Ground track

The orbit is defined by the following mean orbital elements,

1 68471U          26145.33356564 +.00000000 +00000-0 +51084-3 0 00003
2 68471  97.7561 103.8755 0005387 113.8036 246.3748 14.91308267    02
Epoch (UTC): 25 May 2026 08:00:20
Eccentricity: 0.0005387
inclination: 97.7561°
perigee height: 590 km
apogee height: 598 km
right ascension of ascending node: 103.8755°
argument of perigee: 113.8036°
revolutions per day: 14.91308267
mean anomaly at epoch: 246.3748°

The dashed part of the orbit path shows where the satellite is in the earth's shadow,  

DLR